Regional Weather Roundup
Issued by NWS

Home | Current Version | Previous Version | Text Only | Print | Product List | Glossary Off
Versions: 1 2 3 4 5 6 7 8 9 10 11 12 13 14 15 16 17 18 19 20 21 22 23 24 25 26 27 28 29 30 31 32 33 34 35 36 37 38 39 40 41 42 43 44 45 46 47 48 49 50

831
ASUS43 KLOT 060703
RWRIL

ILLINOIS REGIONAL WEATHER ROUNDUP
NATIONAL WEATHER SERVICE CHICAGO/ROMEOVILLE IL
100 AM CST SAT FEB 06 2016

NOTE: "FAIR" INDICATES FEW OR NO CLOUDS BELOW 12,000 FEET WITH NO
SIGNIFICANT WEATHER AND/OR OBSTRUCTIONS TO VISIBILITY.

* THESE STATIONS ARE NOT UNDER NWS QUALITY CONTROL. THEY ALSO MAY NOT
  REPORT WEATHER SUCH AS PRECIPITATION OR FOG.

ILZ001-002-007-009-015-016-024-060800-
NORTHWEST ILLINOIS

CITY           SKY/WX    TMP DP  RH WIND       PRES   REMARKS
MOLINE         CLOUDY    29  22  75 S3        30.29F
STERLING*      CLOUDY    28  21  74 CALM      30.27F
$$

ILZ003-004-008-010-011-017-018-060800-
NORTH CENTRAL ILLINOIS

CITY           SKY/WX    TMP DP  RH WIND       PRES   REMARKS
ROCKFORD       CLOUDY    27  22  81 S7        30.29F WCI  19
FREEPORT*      CLOUDY    28  23  83 SW9       30.29F WCI  19
$$

ILZ005-006-012>014-019>023-060800-
NORTHEAST ILLINOIS

CITY           SKY/WX    TMP DP  RH WIND       PRES   REMARKS
CHICAGO-OHARE  CLOUDY    27  22  81 SW5       30.29F WCI  22
CHICAGO-MIDWAY MOCLDY    28  21  75 SW6       30.31F WCI  22
AURORA         CLOUDY    26  22  84 S6        30.30F FOG     WCI  19
LANSING*       MOCLDY    24  21  90 SW3       30.32S
WAUKEGAN       CLOUDY    26  22  84 SW7       30.27F WCI  18
DUPAGE AIRPORT CLOUDY    26  21  81 SW6       30.29F WCI  19
WHEELING       CLOUDY    27  22  81 CALM      30.31F
NORTHERLY ISL    N/A     28  22  78 W9          N/A  WCI  19
$$

LMZ740>746-060800-
SOUTHERN LAKE MICHIGAN

STATION/POSITION SKY/WX   TEMP    WIND        PRES    VSBY  WAVE
                          AIR SEA DIR/SP/G                  HT/PER
                          (F)     (DEG/KT/KT) (MB)    (MI)  (FT/S)
HARRISON CRIB              30     260/  9/ 11   N/A
BURNHAM HARBOR             28     240/  8/ 11   N/A
CALUMET HARBOR             26     240/  4/  6 1026.0R
BURNS HARBOR               27     220/  8/ 10 1027.1F
MICHIGAN CITY              26     190/  9/ 10   N/A
$$

ILZ025>027-034>036-040-047-049-050-058-095>099-060800-
WEST-CENTRAL ILLINOIS

CITY           SKY/WX    TMP DP  RH WIND       PRES   REMARKS
QUINCY         CLOUDY    30  22  72 SE5       30.29F WCI  25
MACOMB*        CLOUDY    28  25  86 S6        30.33S WCI  22
$$

ILZ028>032-037-038-041>044-048-051>054-059>061-060800-
CENTRAL ILLINOIS

CITY           SKY/WX    TMP DP  RH WIND       PRES   REMARKS
BLOOMINGTON    MOCLDY    23  22  96 S3        30.31F
DECATUR        CLEAR     26  22  84 S3        30.31F
PEORIA         CLEAR     26  19  74 CALM      30.32S
SPRINGFIELD    CLOUDY    26  23  88 S3        30.32F
TAYLORVILLE    NOT AVBL
$$

ILZ033-039-045-046-055>057-062-063-060800-
EAST-CENTRAL ILLINOIS

CITY           SKY/WX    TMP DP  RH WIND       PRES   REMARKS
CHAMPAIGN      CLEAR     23  20  88 S5        30.31F WCI  17
MATTOON        CLOUDY    24  21  88 SE5       30.30F FOG     WCI  18
$$

ILZ079-100>102-060800-
SOUTHWEST ILLINOIS

CITY           SKY/WX    TMP DP  RH WIND       PRES   REMARKS
BELLEVILLE     CLEAR     25  22  86 CALM      30.32F
CAHOKIA*       CLOUDY    28  21  75 N3        30.33S
SPARTA*        PTCLDY    29  23  78 SE6       30.33F WCI  22
$$

ILZ064>066-069>071-074>076-080>082-084>086-088>090-092>094-060800-
SOUTH-CENTRAL ILLINOIS

CITY           SKY/WX    TMP DP  RH WIND       PRES   REMARKS
CARBONDALE     CLEAR     30  22  72 SE5       30.33F WCI  25
MT. VERNON     PTCLDY    28  19  69 CALM      30.34S
CENTRALIA*     CLEAR     29  24  81 E3        30.32F
SALEM*         CLEAR     30  24  78 SE5       30.33S WCI  25
$$

ILZ067-068-072-073-078-083-087-091-060800-
SOUTHEAST ILLINOIS

CITY           SKY/WX    TMP DP  RH WIND       PRES   REMARKS
LAWRENCEVILLE  CLEAR     22  20  92 E3        30.36F FOG
HARRISBURG*    CLOUDY    26  23  87 CALM      30.35F
ROBINSON*      CLEAR     20  19  96 S3        30.37F
CARMI*         CLOUDY    28  25  89 CALM      30.35S
$$

ABBREVIATIONS USED IN REMARKS
   TC - TEMPERATURE IN CELSIUS
  WCI - WIND CHILL INDEX
   HX - HEAT INDEX
  VSB - VISIBILITY
$$





USA.gov is the U.S. government's official web portal to all federal, state and local government web resources and services.